Date String (YYYY-MM-DD hh:mm:ss) UTC,Instrument flags,absolute air pressure of the measurement (hPa),sample flow rate (lpm),inlet stack bypass flow (lpm),air temperature of the measurement (°C),ambient temperature measured by the external sensor (°C),aerosol sample conditioner tube jacket temperature (°C),OPC LED temperature (°C),internal box temperature (°C),relative humidity of the measurement (%),span deviation,mass concentration of particles derived from Lorenz-Mie calculation of OPC scattering (μg/m³),mass concentration of particles derived from Lorenz-Mie calculation of OPC scattering (μg/m³),mass concentration of particles derived from Lorenz-Mie calculation of OPC scattering (μg/m³)
DateTimeUTC,F1_M11,P_M11,Q1_M11,Q2_M11,T1_M11,T2_M11,T3_M11,T4_M11,T5_M11,U1_M11,ZSPAN_M11,X0_M11,X2_M11,X1_M11
2024-05-16 17:00:00,SystemResetWarning,0827.0,5.00,000.00,024.5,024.0,000.0,032.5,026.4,026.4,0000.0,0006.79,0002.45,0001.88
2024-05-16 17:01:00,SystemResetWarning,0826.9,5.00,000.00,024.6,024.1,000.0,032.6,026.4,026.1,0000.0,0006.82,0002.49,0001.93
2024-05-16 17:02:00,SystemResetWarning,0826.9,5.00,000.00,024.6,024.2,000.0,032.6,026.5,026.6,0000.0,0007.32,0002.58,0001.98
2024-05-16 17:03:00,SystemResetWarning,0826.9,5.00,000.00,024.7,024.2,000.0,032.7,026.5,026.6,0000.0,0007.37,0002.69,0002.03
2024-05-16 17:04:00,SystemResetWarning,0826.8,4.98,000.00,024.5,022.8,000.0,032.8,025.7,026.2,0000.0,0007.27,0002.70,0002.06
2024-05-16 17:05:00,SystemResetWarning,0826.8,5.01,000.00,024.1,021.2,000.0,032.8,024.9,027.4,0000.0,0007.31,0002.75,0002.11
2024-05-16 17:06:00,SystemResetWarning,0826.8,5.02,000.00,023.9,021.4,000.0,032.7,024.9,027.7,0000.0,0006.54,0002.78,0002.15
2024-05-16 17:07:00,SystemResetWarning,0826.8,4.99,000.00,023.9,021.8,000.0,032.6,025.1,026.2,0000.0,0006.04,0002.78,0002.20
2024-05-16 17:08:00,SystemResetWarning,0826.8,5.00,000.00,023.9,022.2,000.0,032.5,025.3,026.4,0000.0,0006.16,0002.80,0002.22
2024-05-16 17:09:00,SystemResetWarning,0826.8,5.00,000.00,024.0,022.5,000.0,032.4,025.5,027.8,0000.0,0007.44,0002.81,0002.23
2024-05-16 17:10:00,SystemResetWarning,0826.8,5.00,000.00,024.0,022.8,000.0,032.4,025.6,029.0,0000.0,0007.15,0002.81,0002.24
2024-05-16 17:11:00,SystemResetWarning,0826.8,5.00,000.00,024.1,023.1,000.0,032.4,025.8,028.9,0000.0,0007.67,0002.84,0002.25
2024-05-16 17:12:00,SystemResetWarning,0826.8,4.99,000.00,024.1,023.3,000.0,032.4,025.9,028.2,0000.0,0007.43,0002.87,0002.26
2024-05-16 17:13:00,SystemResetWarning,0826.8,5.00,000.00,024.2,023.4,000.0,032.4,026.0,027.7,0000.0,0007.12,0002.89,0002.27
2024-05-16 17:14:00,SystemResetWarning,0826.9,5.00,000.00,024.3,023.6,000.0,032.4,026.1,025.9,0000.0,0007.48,0002.85,0002.25
2024-05-16 17:15:00,SystemResetWarning,0826.9,5.01,000.00,024.3,023.7,000.0,032.4,026.2,022.2,0000.0,0008.26,0002.86,0002.23
2024-05-16 17:16:00,SystemResetWarning,0826.9,5.00,000.00,024.4,023.9,000.0,032.5,026.3,023.0,0000.0,0008.92,0002.83,0002.18
2024-05-16 17:17:00,SystemResetWarning,0826.9,4.99,000.00,024.5,024.0,000.0,032.5,026.4,022.8,0000.0,0009.22,0002.80,0002.13
2024-05-16 17:18:00,SystemResetWarning,0826.9,4.99,000.00,024.5,024.1,000.0,032.5,026.4,023.8,0000.0,0009.46,0002.78,0002.09
2024-05-16 17:19:00,SystemResetWarning,0826.9,5.00,000.00,024.5,023.5,000.0,032.6,026.1,022.8,0000.0,0009.35,0002.75,0002.06
2024-05-16 17:20:00,SystemResetWarning,0826.8,5.00,000.00,024.2,021.6,000.0,032.7,025.0,022.2,0000.0,0008.76,0002.66,0002.02
2024-05-16 17:21:00,SystemResetWarning,0826.8,5.01,000.00,023.9,021.1,000.0,032.7,024.8,022.0,0000.0,0008.38,0002.59,0001.98
2024-05-16 17:22:00,SystemResetWarning,0826.9,5.02,000.00,023.8,021.5,000.0,032.6,024.9,022.0,0000.0,0008.06,0002.51,0001.93
2024-05-16 17:23:00,SystemResetWarning,0826.9,4.99,000.00,023.8,021.9,000.0,032.4,025.1,021.9,0000.0,0008.33,0002.43,0001.88
2024-05-16 17:24:00,SystemResetWarning,0826.9,4.99,000.00,023.8,022.2,000.0,032.3,025.3,024.3,0000.0,0008.21,0002.34,0001.83
2024-05-16 17:25:00,SystemResetWarning,0826.9,5.01,000.00,023.9,022.6,000.0,032.3,025.5,023.6,0000.0,0007.82,0002.28,0001.81
2024-05-16 17:26:00,SystemResetWarning,0826.9,5.00,000.00,024.0,022.8,000.0,032.3,025.6,023.0,0000.0,0006.68,0002.25,0001.79
2024-05-16 17:27:00,SystemResetWarning,0826.8,5.01,000.00,024.0,023.1,000.0,032.3,025.7,024.5,0000.0,0005.67,0002.25,0001.79
2024-05-16 17:28:00,SystemResetWarning,0826.9,4.99,000.00,024.1,023.3,000.0,032.3,025.9,023.1,0000.0,0005.12,0002.27,0001.80
2024-05-16 17:29:00,SystemResetWarning,0826.8,4.99,000.00,024.1,023.5,000.0,032.3,026.0,021.8,0000.0,0004.80,0002.26,0001.79
2024-05-16 17:30:00,SystemResetWarning,0826.8,5.00,000.00,024.2,023.6,000.0,032.3,026.0,021.6,0000.0,0004.75,0002.24,0001.78
2024-05-16 17:31:00,SystemResetWarning,0826.8,5.00,000.00,024.3,023.7,000.0,032.3,026.1,022.2,0000.0,0004.46,0002.23,0001.77
2024-05-16 17:32:00,SystemResetWarning,0826.8,5.00,000.00,024.3,023.8,000.0,032.4,026.2,021.5,0000.0,0004.55,0002.26,0001.77
2024-05-16 17:33:00,SystemResetWarning,0826.8,5.00,000.00,024.4,023.9,000.0,032.4,026.3,020.1,0000.0,0005.77,0002.30,0001.77
2024-05-16 17:34:00,SystemResetWarning,0826.8,5.00,000.00,024.5,024.0,000.0,032.4,026.3,019.2,0000.0,0005.11,0002.29,0001.75
2024-05-16 17:35:00,SystemResetWarning,0826.8,5.01,000.00,024.5,024.0,000.0,032.5,026.3,018.6,0000.0,0004.92,0002.24,0001.71
2024-05-16 17:36:00,SystemResetWarning,0826.8,4.98,000.00,024.4,022.6,000.0,032.6,025.5,018.5,0000.0,0004.84,0002.19,0001.67
2024-05-16 17:37:00,SystemResetWarning,0826.7,5.01,000.00,024.0,021.0,000.0,032.6,024.7,019.2,0000.0,0004.76,0002.11,0001.64
2024-05-16 17:38:00,SystemResetWarning,0826.6,5.02,000.00,023.8,021.2,000.0,032.6,024.8,019.4,0000.0,0004.73,0002.07,0001.61
2024-05-16 17:39:00,SystemResetWarning,0826.6,4.99,000.00,023.8,021.6,000.0,032.4,025.0,019.9,0000.0,0004.74,0002.04,0001.59
2024-05-16 17:40:00,SystemResetWarning,0826.6,4.99,000.00,023.8,022.0,000.0,032.3,025.2,021.4,0000.0,0004.62,0002.00,0001.57
2024-05-16 17:41:00,SystemResetWarning,0826.6,5.01,000.00,023.8,022.4,000.0,032.3,025.4,020.6,0000.0,0004.99,0002.00,0001.56
2024-05-16 17:42:00,SystemResetWarning,0826.6,5.02,000.00,023.9,022.7,000.0,032.2,025.5,020.7,0000.0,0006.03,0002.00,0001.56
2024-05-16 17:43:00,SystemResetWarning,0826.6,4.99,000.00,024.0,023.0,000.0,032.2,025.6,021.3,0000.0,0006.13,0002.04,0001.55
2024-05-16 17:44:00,SystemResetWarning,0826.6,4.99,000.00,024.0,023.2,000.0,032.2,025.8,020.9,0000.0,0005.12,0001.98,0001.53
2024-05-16 17:45:00,SystemResetWarning,0826.6,4.99,000.00,024.1,023.4,000.0,032.2,025.9,020.5,0000.0,0004.65,0001.98,0001.53
2024-05-16 17:46:00,SystemResetWarning,0826.6,5.00,000.00,024.2,023.5,000.0,032.2,026.0,020.8,0000.0,0004.63,0001.96,0001.54
2024-05-16 17:47:00,SystemResetWarning,0826.6,5.00,000.00,024.2,023.7,000.0,032.3,026.1,021.3,0000.0,0004.68,0001.98,0001.54
2024-05-16 17:48:00,SystemResetWarning,0826.6,5.00,000.00,024.3,023.8,000.0,032.3,026.2,020.6,0000.0,0004.63,0002.01,0001.55
2024-05-16 17:49:00,SystemResetWarning,0826.6,5.01,000.00,024.4,023.9,000.0,032.3,026.3,020.4,0000.0,0004.66,0002.05,0001.56
2024-05-16 17:50:00,SystemResetWarning,0826.6,5.00,000.00,024.4,024.0,000.0,032.4,026.3,020.9,0000.0,0004.42,0002.00,0001.57
2024-05-16 17:51:00,SystemResetWarning,0826.6,4.98,000.00,024.4,023.4,000.0,032.5,026.0,020.3,0000.0,0004.36,0002.01,0001.58
2024-05-16 17:52:00,SystemResetWarning,0826.6,5.01,000.00,024.2,022.0,000.0,032.5,025.3,020.3,0000.0,0003.90,0002.00,0001.58
2024-05-16 17:53:00,SystemResetWarning,0826.6,5.01,000.00,024.0,022.2,000.0,032.6,025.3,021.3,0000.0,0003.09,0002.02,0001.58
2024-05-16 17:54:00,SystemResetWarning,0826.5,4.99,000.00,024.0,022.5,000.0,032.5,025.4,021.5,0000.0,0003.06,0002.00,0001.58
2024-05-16 17:55:00,SystemResetWarning,0826.6,4.99,000.00,024.1,022.8,000.0,032.4,025.6,021.2,0000.0,0003.14,0002.03,0001.59
2024-05-16 17:56:00,SystemResetWarning,0826.5,5.00,000.00,024.1,023.0,000.0,032.4,025.7,019.5,0000.0,0003.16,0002.02,0001.57
2024-05-16 17:57:00,SystemResetWarning,0826.5,5.01,000.00,024.2,023.2,000.0,032.4,025.9,019.0,0000.0,0003.60,0002.04,0001.56
2024-05-16 17:58:00,SystemResetWarning,0826.4,5.00,000.00,024.2,023.4,000.0,032.4,026.0,019.8,0000.0,0004.50,0002.04,0001.55
2024-05-16 17:59:00,SystemResetWarning,0826.5,4.99,000.00,024.3,023.6,000.0,032.4,026.1,019.8,0000.0,0004.89,0002.03,0001.56
